Location: *
(45.6439°N, 0.5436°E)
Time: 16:36:03
(UTC+00:00)

Daily predictions for brighter satellites

Satellite Brightness Start Highest point End
(mag) Time Altitude Azimuth Time Altitude Azimuth Time Altitude Azimuth
Cosmos 304 Rocket 3.9 17:33:44 10° SSW 17:38:32 83° WNW 17:43:23 10° NNE
Unknown 3.7 17:34:38 10° WSW 17:38:47 81° NNW 17:42:57 10° ENE
Cosmos 1503 Rocket 4.0 17:33:43 10° NNW 17:38:53 66° ENE 17:44:01 10° SSE
Lacrosse 5 3.3 17:35:45 10° NW 17:39:53 24° N 17:43:59 10° ENE
Cosmos 1758 3.4 17:36:13 10° S 17:40:12 83° W 17:44:11 10° N
Unknown 3.8 17:38:38 10° WSW 17:42:47 76° NNW 17:46:56 10° ENE
Unknown 3.8 17:38:54 10° WSW 17:43:03 76° NNW 17:47:13 10° ENE
Cosmos 2285 Rocket 4.0 17:38:01 10° NNW 17:44:30 77° ENE 17:50:54 10° SSE
Unknown 3.8 17:40:41 10° WSW 17:44:49 72° NNW 17:48:58 10° NE
Cosmos 839 Rocket 4.4 17:41:12 10° NNW 17:47:08 46° NE 17:53:39 10° ESE
Unknown 3.9 17:44:00 10° WSW 17:48:08 69° NNW 17:52:17 10° NE
Unknown 3.8 17:44:29 10° WSW 17:48:36 71° NNW 17:52:45 10° NE
FengYun 1-2 T 4.4 17:43:07 10° SSE 17:48:37 57° ENE 17:54:07 10° N
Unknown 3.9 17:45:35 10° WSW 17:49:43 70° NNW 17:53:52 10° NE
SKYMED 2 3.8 17:46:37 10° NNE 17:50:51 49° E 17:55:04 10° S
Unknown 3.9 17:48:46 10° WSW 17:52:54 69° NNW 17:57:03 10° NE
SMAP 4.4 17:50:33 10° S 17:55:00 45° W 17:59:29 10° NNW
Cosmos 1844 Rocket 2.7 17:49:31 10° SSW 17:55:10 80° ESE 18:00:51 10° NNE
YAOGAN 1 2.9 17:51:23 10° SE 17:55:27 43° ENE 17:59:34 10° N
Unknown 4.0 17:52:14 10° WSW 17:56:21 64° NNW 18:00:29 10° NE
COBE Rocket 4.0 17:52:17 10° NNE 17:57:30 74° E 18:02:34 10° S
YAOGAN 6 2.8 17:54:02 10° SSE 17:57:36 51° ENE 18:01:10 10° N
Unknown 4.0 17:53:55 10° WSW 17:58:02 63° NNW 18:02:09 10° NE
H-2A R/B 4.0 17:57:31 10° ENE 17:58:58 11° NE 18:00:26 10° NE
Unknown 4.0 17:55:36 10° WSW 17:59:42 61° NNW 18:03:49 10° NE
Meteor 1-16 Rocket 4.3 17:55:47 10° S 18:01:12 53° E 18:06:29 10° NNE
Unknown 4.0 17:57:15 10° WSW 18:01:22 60° NNW 18:05:29 10° NE
Cosmos 1939 Rocket 3.9 17:58:51 10° ESE 18:02:07 25° ENE 18:05:28 10° NNE
Lacrosse 5 rocket 1.3 17:59:48 10° NW 18:03:33 76° SW 18:07:31 10° SE
Unknown 4.1 18:00:36 10° WSW 18:04:41 57° NNW 18:08:40 11° NE
Unknown 4.1 18:02:19 10° WSW 18:06:24 56° NNW 18:10:20 11° NE
Cosmos 1908 4.1 18:03:24 10° SSE 18:06:46 28° E 18:10:08 10° NNE
Unknown 4.2 18:03:59 10° WSW 18:08:04 55° NNW 18:11:55 11° NE
Cosmos 1726 Rocket 3.5 18:04:08 10° S 18:08:32 79° E 18:12:55 10° NNE
Unknown 4.2 18:05:35 10° WSW 18:09:39 55° NNW 18:13:26 12° NE
Unknown 4.2 18:06:06 10° WSW 18:10:09 54° NNW 18:13:55 12° NE
Cosmos 482 Debris 4.3 18:05:58 10° WNW 18:11:26 82° NNE 18:13:57 16° ESE
Unknown 4.2 18:08:45 10° WSW 18:12:50 55° NNW 18:16:28 13° NE
Shenzhou-11 Module 2.5 18:11:21 10° WSW 18:13:59 40° S 18:15:24 22° ESE
Cosmos 2278 Rocket 3.0 18:09:18 10° SSE 18:14:05 29° ESE 18:18:55 10° NE
Unknown 4.2 18:12:09 10° WSW 18:16:12 53° NNW 18:19:43 13° NE
Cosmos 1328 3.8 18:12:29 10° N 18:16:26 56° ENE 18:20:19 10° SSE
CZ-4C R/B 3.9 18:10:18 10° NW 18:17:23 53° WSW 18:25:19 10° SSE
Unknown 4.2 18:13:47 10° W 18:17:51 52° NNW 18:21:16 14° NE
Cosmos 2228 3.2 18:13:32 10° SSW 18:17:55 78° W 18:22:18 10° N
Cosmos 1844 3.8 18:12:16 10° SSW 18:17:59 87° WNW 18:23:49 10° NNE
Unknown 4.4 18:15:45 10° W 18:19:47 48° NNW 18:23:07 14° NE
Okean-O 4.4 18:15:51 10° SSW 18:19:56 36° W 18:24:03 10° NNW
Cosmos 2058 Rocket 2.9 18:16:49 10° S 18:21:09 70° E 18:25:29 10° NNE
Unknown 4.3 18:17:07 10° W 18:21:09 50° NNW 18:24:27 15° NE
Unknown 4.3 18:18:49 10° W 18:22:51 49° NNW 18:26:04 15° NE
CZ-4 R/B 1.7 18:18:47 10° S 18:22:55 75° WSW 18:27:09 10° NNW
ATLAS 5 CENTAUR R/B 2.8 18:19:48 10° WSW 18:23:53 40° NW 18:28:29 10° NNE
Envisat 3.7 18:19:43 10° S 18:24:43 58° W 18:29:45 10° NNW
Unknown 4.4 18:22:11 10° W 18:26:12 47° NNW 18:29:16 16° NE
Unknown 4.4 18:23:53 10° W 18:27:53 46° NNW 18:30:54 17° NE
Cosmos 921 Rocket 3.1 18:24:20 10° SSW 18:28:51 83° WNW 18:33:20 10° NNE
Unknown 4.4 18:25:34 10° W 18:29:34 46° NNW 18:32:29 17° NE
Unknown 4.5 18:27:15 10° W 18:31:15 45° NNW 18:34:06 17° NE
Abrixas rocket 3.6 18:30:42 10° SSW 18:32:58 21° SSE 18:32:58 21° SSE
Cosmos 1605 Rocket 3.9 18:27:54 10° N 18:34:05 66° ENE 18:40:10 10° SSE
Cosmos 1356 3.3 18:31:31 10° S 18:34:57 87° E 18:38:25 10° NNE
Unknown 3.6 18:33:14 10° NW 18:36:13 40° NNE 18:36:51 35° NE
Cosmos 2084 4.4 18:31:59 10° WSW 18:36:25 51° NW 18:40:46 10° NNE
DMSP B5D1-3 4.5 18:33:22 10° NNE 18:38:28 65° ESE 18:43:33 10° S
COSMO-SKYMED 1 3.4 18:34:43 10° N 18:38:58 52° WNW 18:43:10 10° SSW
ADEOS Rocket 4.3 18:33:09 10° NE 18:39:27 27° E 18:45:25 10° SE
CSL-04 Rocket 4.0 18:34:14 10° S 18:39:46 72° WSW 18:45:17 10° NNW
Cosmos 1727 Rocket 4.1 18:35:35 10° SSE 18:41:26 47° E 18:47:18 10° NNE
USA 116 3.6 18:40:55 10° N 18:44:01 62° WNW 18:47:16 10° SSW
NOAA 11 4.1 18:39:46 10° SSE 18:45:12 77° ENE 18:50:39 10° N
ASTEX 1 4.2 18:40:51 10° N 18:45:41 54° W 18:50:30 10° SSW
Cosmos 1934 Rocket 4.4 18:40:26 10° NNW 18:46:43 69° W 18:53:01 10° S
Unknown 4.4 18:44:44 10° NW 18:47:46 28° NNE 18:48:13 27° NNE
CZ-2D R/B 3.2 18:44:50 10° SSE 18:48:40 89° WSW 18:52:33 10° NNW
Cosmos 1726 2.9 18:49:15 10° SSW 18:52:49 51° WNW 18:56:24 10° N
SL-4 R/B 3.8 18:50:52 10° W 18:53:56 23° SW 18:56:20 13° S
Cosmos 2173 Rocket 4.4 18:49:22 10° N 18:55:12 38° ENE 18:56:56 32° ESE
Cosmos 2058 4.4 18:52:35 10° NNE 18:54:46 23° NE 18:54:46 23° NE
ARGOS 4.0 18:57:06 29° ENE 18:57:06 29° ENE 19:01:42 10° N
Cosmos 1833 Rocket 2.7 18:51:50 10° NNW 18:57:25 60° ENE 18:59:52 33° SE
BREEZE M DEB (TANK) 2.5 18:55:19 10° WNW 18:57:54 69° SSW 18:59:45 34° SE
Falcon 9 debris 4.4 18:56:52 10° NW 18:59:57 30° NNE 18:59:57 30° NNE
Cosmos 1242 Rocket 4.4 18:59:49 10° NNW 19:03:10 32° W 19:06:29 10° SSW
Unknown 3.7 19:00:47 10° WNW 19:02:50 41° W 19:02:50 41° W
Gbstr 26 Del rocket 4.2 18:59:13 10° WNW 19:05:25 69° NNE 19:08:28 37° E
Ariane Rocket 3.0 19:02:08 10° SSE 19:07:14 80° WSW 19:12:22 10° NNW
Unknown 4.5 19:04:04 10° NW 19:06:59 30° N 19:06:59 30° N
USA 238 DEB 3.8 19:02:07 10° S 19:08:28 49° ESE 19:11:08 33° ENE
USA 238 3.8 19:02:14 10° S 19:08:35 48° ESE 19:11:11 33° ENE
Cosmos 2100 Rocket 4.0 19:08:26 10° N 19:14:33 56° ENE 19:16:25 41° SE
USA 234 4.2 19:17:27 27° SSE 19:17:27 27° SSE 19:21:29 10° S
Cosmos 2082 Rocket 2.2 19:11:40 10° NNW 19:17:21 60° ENE 19:18:18 53° E
COSMOS 2406 4.1 19:13:13 10° NW 19:18:44 48° WSW 19:24:12 10° S
SPOT 3 Rocket 3.6 19:19:14 53° ENE 19:19:14 53° ENE 19:24:17 10° N
Cosmos 1812 Rocket 3.5 19:18:29 10° S 19:22:53 88° W 19:27:22 10° N
Lacrosse 5 2.1 19:18:51 10° NW 19:23:48 52° NNE 19:23:56 52° NE
Cosmos 1461 3.3 19:24:56 10° NNW 19:28:13 56° NNW 19:28:13 56° NNW
BREEZE-M DEB (TANK) 4.4 19:27:07 10° WNW 19:32:13 73° SSW 19:39:09 30° SE
MOS 1 4.3 19:28:54 24° S 19:32:25 77° WSW 19:38:06 10° NNW
NOSS 3-2 (A) 3.5 19:29:14 10° SSW 19:33:55 52° SSE 19:33:55 52° SSE
H-2A R/B 2.2 19:38:01 59° NNE 19:38:01 59° NNE 19:42:41 10° N
Cosmos 2016 Rocket 4.1 19:32:38 10° N 19:38:11 53° NE 19:38:11 53° NE
Cosmos 1076 Rocket 3.9 19:35:14 10° NNW 19:39:05 62° NW 19:39:05 62° NW
NOSS 3-3 (A) 4.4 19:33:17 10° NW 19:40:46 74° NE 19:42:40 55° ESE
NOSS 3-3 (C) 4.4 19:33:23 10° NW 19:40:52 74° NE 19:42:44 55° ESE
Lacrosse 5 rocket 4.2 19:41:24 10° WSW 19:42:08 10° WSW 19:42:54 10° SW
In-Cosmos 22 Rocket 4.2 19:40:41 10° N 19:45:16 64° NNE 19:45:16 64° NNE
Cosmos 2061 Rocket 3.9 19:43:50 10° N 19:49:34 67° NE 19:49:34 67° NE
Cosmos 2278 Rocket 3.1 19:52:28 10° SW 19:57:56 47° WNW 20:03:25 10° NNE
CZ-2C R/B 4.0 20:02:00 45° N 20:02:00 45° N 20:06:04 10° N
ATLAS 5 CENTAUR R/B 4.4 20:07:37 10° NW 20:10:01 14° NNW 20:11:50 12° N
Resurs 01 Rocket 4.3 20:22:59 14° NNW 20:22:59 14° NNW 20:23:36 10° NNW
ADEOS Rocket 3.7 20:17:48 10° N 20:25:32 70° WNW 20:32:46 10° SSW
SJ 16-02 4.1 20:23:55 10° NNW 20:24:27 13° NNW 20:24:27 13° NNW
Cosmos 2082 Rocket 4.3 20:56:38 10° NW 21:00:11 22° W 21:00:11 22° W
